PLF202 EPKK-EPKK

Flight info

Callsign PLF202
Flight time 0h 28m
Altitude 2000
Route DCT
Aircraft AN28/L-SFG/C

Departure

Time 2026-05-03 21:27
Airport Kraków John Paul II International Airport (EPKK)

Arrival

Time 2026-05-03 21:56
Airport Kraków John Paul II International Airport (EPKK)
Time Latitude Longitude Altitude Speed Heading
2026-05-03 21:17 50.07605 19.79459 789 ft 0 kts 348°
2026-05-03 21:25 50.07621 19.79438 788 ft 6 kts 305°
2026-05-03 21:25 50.07636 19.79350 788 ft 11 kts 266°
2026-05-03 21:25 50.07622 19.79221 788 ft 13 kts 262°
2026-05-03 21:25 50.07655 19.79123 788 ft 9 kts 352°
2026-05-03 21:26 50.07702 19.79107 788 ft 4 kts 351°
2026-05-03 21:26 50.07723 19.79100 788 ft 6 kts 349°
2026-05-03 21:26 50.07822 19.79043 789 ft 19 kts 310°
2026-05-03 21:26 50.07828 19.78865 790 ft 16 kts 257°
2026-05-03 21:27 50.07795 19.78623 790 ft 54 kts 258°
2026-05-03 21:27 50.07684 19.77879 1032 ft 82 kts 260°
2026-05-03 21:27 50.07548 19.76725 1224 ft 122 kts 257°
2026-05-03 21:27 50.06978 19.75904 1600 ft 131 kts 172°
2026-05-03 21:28 50.06131 19.76554 1851 ft 148 kts 135°
2026-05-03 21:28 50.05934 19.78213 1901 ft 171 kts 83°
2026-05-03 21:28 50.06264 19.80033 1969 ft 183 kts 72°
2026-05-03 21:28 50.06782 19.81879 2022 ft 188 kts 60°
2026-05-03 21:29 50.07847 19.82721 1841 ft 188 kts 340°
2026-05-03 21:29 50.08270 19.81197 1699 ft 153 kts 251°
2026-05-03 21:29 50.07964 19.79812 1557 ft 145 kts 256°
2026-05-03 21:29 50.07710 19.78179 1558 ft 163 kts 258°
2026-05-03 21:30 50.07513 19.76404 1640 ft 166 kts 268°
2026-05-03 21:30 50.08019 19.74805 1708 ft 175 kts 321°
2026-05-03 21:30 50.08969 19.74171 1763 ft 113 kts 350°
2026-05-03 21:30 50.09909 19.74222 1782 ft 154 kts
2026-05-03 21:31 50.10844 19.75169 1701 ft 175 kts 57°
2026-05-03 21:31 50.11455 19.76762 1618 ft 178 kts 68°
2026-05-03 21:31 50.11206 19.78550 1623 ft 182 kts 134°
2026-05-03 21:31 50.10083 19.79135 1678 ft 175 kts 197°
2026-05-03 21:32 50.09387 19.77777 1701 ft 171 kts 270°
2026-05-03 21:32 50.09850 19.76098 1803 ft 171 kts 313°
2026-05-03 21:32 50.10421 19.74614 1823 ft 167 kts 261°
2026-05-03 21:32 50.09440 19.74205 1707 ft 184 kts 149°
2026-05-03 21:33 50.08596 19.75723 1637 ft 188 kts 119°
2026-05-03 21:33 50.08362 19.77747 1414 ft 201 kts 89°
2026-05-03 21:33 50.08588 19.79873 1283 ft 189 kts 76°
2026-05-03 21:33 50.08489 19.81408 1395 ft 120 kts 185°
2026-05-03 21:34 50.08020 19.80271 942 ft 165 kts 256°
2026-05-03 21:34 50.07791 19.78649 790 ft 134 kts 254°
2026-05-03 21:34 50.07576 19.77145 875 ft 153 kts 258°
2026-05-03 21:34 50.07717 19.75849 960 ft 120 kts 346°
2026-05-03 21:35 50.08328 19.76123 891 ft 87 kts 21°
2026-05-03 21:35 50.08745 19.76849 1167 ft 115 kts 73°
2026-05-03 21:35 50.08811 19.78221 1343 ft 144 kts 89°
2026-05-03 21:35 50.08882 19.79877 1584 ft 160 kts 86°
2026-05-03 21:36 50.09023 19.81691 1512 ft 181 kts 78°
2026-05-03 21:36 50.09029 19.83598 1462 ft 179 kts 133°
2026-05-03 21:36 50.08052 19.83359 1717 ft 162 kts 253°
2026-05-03 21:36 50.08106 19.81558 1292 ft 183 kts 273°
2026-05-03 21:37 50.07914 19.79526 895 ft 191 kts 256°
2026-05-03 21:37 50.07625 19.77554 1037 ft 175 kts 257°
2026-05-03 21:37 50.07427 19.75770 1412 ft 160 kts 272°
2026-05-03 21:37 50.08246 19.75028 1700 ft 166 kts 17°
2026-05-03 21:38 50.08843 19.76466 1860 ft 172 kts 84°
2026-05-03 21:38 50.09451 19.78068 1737 ft 178 kts 34°
2026-05-03 21:38 50.10561 19.78809 1801 ft 175 kts
2026-05-03 21:38 50.10747 19.78810 1752 ft 174 kts 350°
2026-05-03 21:39 50.10895 19.78761 1710 ft 176 kts 343°
2026-05-03 21:39 50.11521 19.77252 1587 ft 180 kts 264°
2026-05-03 21:39 50.10714 19.76040 1855 ft 172 kts 185°
2026-05-03 21:40 50.09839 19.77282 1520 ft 197 kts 109°
2026-05-03 21:40 50.09751 19.79254 1363 ft 189 kts 92°
2026-05-03 21:40 50.10075 19.80872 1734 ft 131 kts 20°
2026-05-03 21:40 50.10730 19.80220 1568 ft 130 kts 296°
2026-05-03 21:41 50.11020 19.78842 1443 ft 137 kts 283°
2026-05-03 21:41 50.11219 19.77399 1462 ft 132 kts 282°
2026-05-03 21:41 50.11265 19.77042 1497 ft 129 kts 279°
2026-05-03 21:42 50.11187 19.75707 1413 ft 131 kts 237°
2026-05-03 21:43 50.10447 19.75514 1443 ft 137 kts 123°
2026-05-03 21:43 50.10534 19.76954 1377 ft 143 kts 72°
2026-05-03 21:43 50.10821 19.78465 1469 ft 146 kts 66°
2026-05-03 21:43 50.11615 19.78940 1442 ft 142 kts 314°
2026-05-03 21:44 50.11415 19.77637 1481 ft 141 kts 214°
2026-05-03 21:44 50.10440 19.77557 1537 ft 149 kts 170°
2026-05-03 21:44 50.09558 19.78290 1584 ft 150 kts 129°
2026-05-03 21:44 50.09239 19.79895 1356 ft 168 kts 86°
2026-05-03 21:45 50.09538 19.81592 1464 ft 155 kts 79°
2026-05-03 21:45 50.09176 19.82983 1362 ft 151 kts 162°
2026-05-03 21:45 50.08364 19.82243 1047 ft 148 kts 254°
2026-05-03 21:45 50.08218 19.80752 986 ft 139 kts 259°
2026-05-03 21:46 50.08011 19.79227 823 ft 155 kts 258°
2026-05-03 21:46 50.07811 19.77510 900 ft 163 kts 259°
2026-05-03 21:46 50.07588 19.75909 1413 ft 143 kts 269°
2026-05-03 21:46 50.08309 19.75325 1456 ft 173 kts 41°
2026-05-03 21:47 50.08653 19.77127 1356 ft 185 kts 84°
2026-05-03 21:47 50.08938 19.79090 1269 ft 179 kts 60°
2026-05-03 21:47 50.09883 19.79993 1302 ft 161 kts 358°
2026-05-03 21:47 50.10804 19.79210 1292 ft 159 kts 304°
2026-05-03 21:48 50.11309 19.77646 1479 ft 164 kts 292°
2026-05-03 21:48 50.11281 19.76072 1706 ft 156 kts 211°
2026-05-03 21:48 50.10519 19.77054 1589 ft 185 kts 103°
2026-05-03 21:48 50.10522 19.79090 1559 ft 184 kts 78°
2026-05-03 21:49 50.11496 19.79964 1609 ft 181 kts 341°
2026-05-03 21:49 50.12091 19.78371 1583 ft 179 kts 270°
2026-05-03 21:49 50.11804 19.76581 1822 ft 161 kts 243°
2026-05-03 21:49 50.10869 19.76074 1870 ft 176 kts 149°
2026-05-03 21:50 50.10488 19.77929 1616 ft 191 kts 95°
2026-05-03 21:50 50.11019 19.79627 1571 ft 190 kts 20°
2026-05-03 21:50 50.12041 19.78724 1408 ft 187 kts 285°
2026-05-03 21:50 50.11982 19.76772 1473 ft 179 kts 253°
2026-05-03 21:51 50.11047 19.75964 1711 ft 173 kts 160°
2026-05-03 21:51 50.10496 19.77638 1599 ft 183 kts 104°
2026-05-03 21:51 50.10738 19.79055 1354 ft 132 kts 345°
2026-05-03 21:51 50.11403 19.77852 1574 ft 140 kts 270°
2026-05-03 21:52 50.10812 19.76792 1815 ft 154 kts 196°
2026-05-03 21:52 50.09670 19.76934 1653 ft 179 kts 160°
2026-05-03 21:52 50.08811 19.78294 1451 ft 190 kts 102°
2026-05-03 21:52 50.09183 19.80183 1449 ft 182 kts 66°
2026-05-03 21:53 50.09595 19.81972 1704 ft 168 kts 88°
2026-05-03 21:53 50.08895 19.83296 1279 ft 185 kts 186°
2026-05-03 21:53 50.08349 19.81922 1232 ft 161 kts 263°
2026-05-03 21:53 50.08127 19.80051 908 ft 188 kts 258°
2026-05-03 21:54 50.07869 19.78035 869 ft 188 kts 259°
2026-05-03 21:54 50.07668 19.76160 1447 ft 142 kts 271°
2026-05-03 21:54 50.08376 19.75500 1535 ft 168 kts 22°
2026-05-03 21:54 50.08627 19.77149 1175 ft 157 kts 96°
2026-05-03 21:55 50.08668 19.78780 1153 ft 147 kts 81°
2026-05-03 21:55 50.08953 19.80289 1281 ft 150 kts 66°
2026-05-03 21:55 50.09182 19.81901 1423 ft 163 kts 107°
2026-05-03 21:55 50.08470 19.81833 1135 ft 123 kts 306°
2026-05-03 21:56 50.08272 19.81506 1214 ft 0 kts 272°
2026-05-03 21:56 50.08203 19.80911 813 ft 69 kts 256°
2026-05-03 21:56 50.08097 19.80104 847 ft 98 kts 256°
2026-05-03 21:56 50.07944 19.78845 1022 ft 134 kts 260°
2026-05-03 21:57 50.07778 19.77307 1233 ft 154 kts 261°
2026-05-03 21:57 50.07702 19.75665 1482 ft 153 kts 285°
2026-05-03 21:57 50.08585 19.75049 1625 ft 171 kts 30°
2026-05-03 21:57 50.08966 19.76812 1570 ft 180 kts 90°
2026-05-03 21:58 50.08847 19.78578 1940 ft 155 kts 127°
2026-05-03 21:58 50.07818 19.79341 1482 ft 182 kts 169°
2026-05-03 21:58 50.06564 19.79653 1442 ft 187 kts 174°
2026-05-03 21:58 50.05295 19.79892 1563 ft 180 kts 179°
2026-05-03 21:59 50.04262 19.79078 1512 ft 179 kts 246°
2026-05-03 21:59 50.04667 19.77367 1518 ft 186 kts 328°
2026-05-03 21:59 50.05902 19.77112 1622 ft 177 kts 14°
2026-05-03 21:59 50.06372 19.78710 1563 ft 179 kts 82°
2026-05-03 22:00 50.06539 19.80684 1615 ft 183 kts 83°
2026-05-03 22:00 50.06760 19.82619 1671 ft 183 kts 80°
2026-05-03 22:00 50.07100 19.84547 1600 ft 186 kts 66°
2026-05-03 22:00 50.07932 19.85992 1583 ft 183 kts 26°
2026-05-03 22:01 50.09125 19.85838 1443 ft 181 kts 320°
2026-05-03 22:01 50.09143 19.84165 1518 ft 165 kts 239°
2026-05-03 22:01 50.08515 19.82562 1140 ft 184 kts 245°
2026-05-03 22:01 50.08181 19.80598 930 ft 189 kts 260°
2026-05-03 22:02 50.08013 19.79257 812 ft 188 kts 258°
2026-05-03 22:02 50.07737 19.77428 1222 ft 162 kts 246°
2026-05-03 22:02 50.06740 19.77304 1319 ft 172 kts 144°
2026-05-03 22:02 50.05949 19.78707 1447 ft 174 kts 131°
2026-05-03 22:03 50.05039 19.79962 1297 ft 173 kts 125°
2026-05-03 22:03 50.05462 19.81319 1401 ft 172 kts 358°
2026-05-03 22:03 50.05937 19.80042 1484 ft 157 kts 242°
2026-05-03 22:03 50.04981 19.79712 1485 ft 163 kts 152°
2026-05-03 22:04 50.04767 19.81299 1461 ft 167 kts 59°
2026-05-03 22:04 50.05776 19.81539 1248 ft 169 kts 315°
2026-05-03 22:04 50.05761 19.79913 1131 ft 152 kts 256°
2026-05-03 22:04 50.05582 19.78213 1217 ft 163 kts 273°
2026-05-03 22:05 50.06409 19.77503 1256 ft 179 kts 34°
2026-05-03 22:05 50.06686 19.79285 1307 ft 176 kts 90°
2026-05-03 22:05 50.06724 19.81287 1194 ft 189 kts 87°
2026-05-03 22:05 50.07037 19.83210 1453 ft 180 kts 70°
2026-05-03 22:06 50.07649 19.84855 1508 ft 177 kts 33°
2026-05-03 22:06 50.08730 19.84470 1464 ft 177 kts 296°
2026-05-03 22:06 50.08596 19.82643 1136 ft 183 kts 255°
2026-05-03 22:06 50.08260 19.80740 966 ft 173 kts 256°
2026-05-03 22:07 50.07998 19.79040 789 ft 146 kts 254°
2026-05-03 22:07 50.07760 19.77536 1155 ft 130 kts 255°
2026-05-03 22:07 50.07429 19.76216 1383 ft 142 kts 215°
2026-05-03 22:07 50.06629 19.76807 1400 ft 162 kts 106°
2026-05-03 22:08 50.06530 19.78629 1355 ft 176 kts 94°
2026-05-03 22:08 50.06508 19.80571 1460 ft 181 kts 92°
2026-05-03 22:08 50.06613 19.82536 1452 ft 187 kts 78°
2026-05-03 22:08 50.07147 19.84387 1372 ft 192 kts 54°
2026-05-03 22:09 50.08198 19.85487 1453 ft 178 kts
2026-05-03 22:09 50.08957 19.84235 1284 ft 177 kts 268°
2026-05-03 22:09 50.08594 19.82391 1086 ft 185 kts 251°
2026-05-03 22:10 50.07926 19.78375 847 ft 191 kts 258°
2026-05-03 22:10 50.07632 19.76469 1272 ft 157 kts 239°
2026-05-03 22:10 50.06780 19.76638 1284 ft 182 kts 107°
2026-05-03 22:10 50.06809 19.78509 1470 ft 162 kts 105°
2026-05-03 22:11 50.05967 19.79579 1351 ft 175 kts 173°
2026-05-03 22:11 50.05177 19.79491 1343 ft 161 kts 213°
2026-05-03 22:11 50.04931 19.78813 1401 ft 154 kts 260°
2026-05-03 22:14 50.05472 19.77864 1709 ft 158 kts 30°
2026-05-03 22:15 50.05392 19.79399 1861 ft 152 kts 128°
2026-05-03 22:15 50.04732 19.80829 1598 ft 173 kts 113°
2026-05-03 22:15 50.05289 19.81472 1712 ft 161 kts 295°
2026-05-03 22:15 50.05214 19.79778 1781 ft 160 kts 255°
2026-05-03 22:16 50.04984 19.78350 1851 ft 165 kts 257°
2026-05-03 22:16 50.04938 19.78021 1862 ft 165 kts 257°
2026-05-03 22:16 50.04951 19.76256 1857 ft 170 kts 294°
2026-05-03 22:16 50.05925 19.75707 1739 ft 183 kts 53°
2026-05-03 22:17 50.05430 19.77417 1175 ft 193 kts 138°
2026-05-03 22:17 50.04650 19.78937 1283 ft 169 kts 112°
2026-05-03 22:17 50.04526 19.80745 1183 ft 165 kts 91°
2026-05-03 22:17 50.05104 19.81476 1476 ft 133 kts 314°
2026-05-03 22:18 50.05315 19.79993 1264 ft 152 kts 274°
2026-05-03 22:18 50.05242 19.78363 1230 ft 146 kts 234°
2026-05-03 22:18 50.04526 19.78732 1276 ft 154 kts 91°
2026-05-03 22:18 50.05240 19.79446 1258 ft 151 kts 330°
2026-05-03 22:19 50.05314 19.78082 1133 ft 154 kts 214°
2026-05-03 22:19 50.04664 19.78910 988 ft 148 kts 86°
2026-05-03 22:19 50.05283 19.79796 1029 ft 143 kts 332°
2026-05-03 22:19 50.05381 19.78455 1038 ft 138 kts 238°
2026-05-03 22:20 50.04642 19.78618 1040 ft 143 kts 102°
2026-05-03 22:20 50.05136 19.79693 1174 ft 138 kts
2026-05-03 22:20 50.05571 19.78642 1214 ft 138 kts 249°
2026-05-03 22:20 50.04807 19.78619 1086 ft 149 kts 115°
2026-05-03 22:21 50.05032 19.80013 1214 ft 144 kts 29°
2026-05-03 22:21 50.05765 19.79289 1215 ft 137 kts 283°
2026-05-03 22:21 50.05814 19.77896 1284 ft 133 kts 289°
2026-05-03 22:21 50.06593 19.77283 1170 ft 141 kts 24°
2026-05-03 22:22 50.06832 19.78558 1105 ft 124 kts 99°
2026-05-03 22:22 50.06760 19.79824 1110 ft 112 kts 89°
2026-05-03 22:22 50.07064 19.80786 1136 ft 105 kts 22°
2026-05-03 22:22 50.07721 19.80444 1029 ft 109 kts 304°
2026-05-03 22:23 50.07987 19.79369 847 ft 105 kts 266°
2026-05-03 22:23 50.07833 19.78208 888 ft 126 kts 256°
2026-05-03 22:23 50.07624 19.76719 1095 ft 149 kts 262°
2026-05-03 22:23 50.08002 19.75380 1434 ft 155 kts 346°
2026-05-03 22:24 50.08649 19.76488 1433 ft 159 kts 90°
2026-05-03 22:24 50.08639 19.78191 1284 ft 155 kts 76°
2026-05-03 22:24 50.09487 19.78699 1408 ft 138 kts 351°
2026-05-03 22:24 50.10440 19.78540 1477 ft 138 kts
2026-05-03 22:25 50.10691 19.79606 1522 ft 136 kts 153°
2026-05-03 22:25 50.09788 19.79406 1208 ft 143 kts 197°
2026-05-03 22:25 50.08931 19.79075 1057 ft 100 kts 197°
2026-05-03 22:25 50.08279 19.78769 899 ft 94 kts 198°
2026-05-03 22:26 50.07881 19.78254 825 ft 68 kts 253°
2026-05-03 22:26 50.07713 19.77335 923 ft 111 kts 255°
2026-05-03 22:26 50.07627 19.76075 1399 ft 122 kts 286°
2026-05-03 22:26 50.08389 19.75374 1507 ft 158 kts
2026-05-03 22:27 50.09302 19.76386 1465 ft 170 kts 37°
2026-05-03 22:27 50.10351 19.77268 1627 ft 172 kts 26°
2026-05-03 22:27 50.10987 19.78597 1605 ft 168 kts 103°
2026-05-03 22:27 50.10034 19.79327 1401 ft 170 kts 189°
2026-05-03 22:28 50.08958 19.78966 1185 ft 147 kts 196°
2026-05-03 22:28 50.08176 19.78620 882 ft 105 kts 200°
2026-05-03 22:28 50.07842 19.77783 828 ft 107 kts 259°
2026-05-03 22:28 50.07661 19.76499 1110 ft 135 kts 260°
2026-05-03 22:29 50.07889 19.75110 1381 ft 149 kts 327°
2026-05-03 22:29 50.08727 19.75854 1371 ft 170 kts 73°
2026-05-03 22:29 50.08867 19.77655 1453 ft 167 kts 87°
2026-05-03 22:29 50.08942 19.79489 1383 ft 174 kts 86°
2026-05-03 22:30 50.09370 19.80887 1495 ft 156 kts 324°
2026-05-03 22:30 50.09177 19.79369 1514 ft 160 kts 248°
2026-05-03 22:30 50.08762 19.77668 1458 ft 177 kts 251°
2026-05-03 22:30 50.08405 19.75768 1332 ft 187 kts 257°
2026-05-03 22:31 50.08091 19.73887 1493 ft 167 kts 235°
2026-05-03 22:31 50.07571 19.74817 1098 ft 170 kts 92°
2026-05-03 22:31 50.07738 19.76643 959 ft 176 kts 78°
2026-05-03 22:31 50.07982 19.78550 915 ft 181 kts 79°
2026-05-03 22:32 50.08235 19.80449 1088 ft 177 kts 82°
2026-05-03 22:32 50.08003 19.82111 1581 ft 156 kts 135°
2026-05-03 22:32 50.06974 19.82112 1351 ft 182 kts 229°
2026-05-03 22:32 50.06598 19.80283 1326 ft 177 kts 258°
2026-05-03 22:33 50.06386 19.78380 1420 ft 180 kts 261°
2026-05-03 22:33 50.06247 19.76396 1336 ft 187 kts 267°
2026-05-03 22:33 50.06508 19.74469 1339 ft 185 kts 302°
2026-05-03 22:33 50.07520 19.73850 1440 ft 171 kts 59°
2026-05-03 22:34 50.07633 19.75720 1094 ft 188 kts 92°
2026-05-03 22:34 50.07843 19.77770 886 ft 190 kts 77°
2026-05-03 22:34 50.08140 19.79783 921 ft 189 kts 79°
2026-05-03 22:34 50.08215 19.81695 1159 ft 171 kts 111°
2026-05-03 22:35 50.07232 19.82404 1252 ft 176 kts 196°
2026-05-03 22:35 50.06285 19.81289 1372 ft 166 kts 217°
2026-05-03 22:35 50.05128 19.80962 1320 ft 169 kts 185°
2026-05-03 22:35 50.04626 19.80453 1537 ft 156 kts 239°
2026-05-03 22:36 50.04520 19.80013 1597 ft 158 kts 254°
2026-05-03 22:36 50.04841 19.78398 1427 ft 184 kts 337°
2026-05-03 22:36 50.05421 19.79632 1304 ft 184 kts 117°
2026-05-03 22:37 50.04456 19.79490 1305 ft 186 kts 255°
2026-05-03 22:37 50.05285 19.78617 1134 ft 190 kts 35°
2026-05-03 22:37 50.05564 19.80451 1283 ft 165 kts 80°
2026-05-03 22:37 50.06449 19.81220 1398 ft 173 kts 341°
2026-05-03 22:38 50.07492 19.80343 1263 ft 178 kts 323°
2026-05-03 22:38 50.07954 19.78923 977 ft 138 kts 262°
2026-05-03 22:38 50.07742 19.77370 989 ft 157 kts 260°
2026-05-03 22:38 50.07799 19.75680 1133 ft 164 kts 305°
2026-05-03 22:39 50.08768 19.75699 1397 ft 157 kts 40°
2026-05-03 22:39 50.09629 19.76906 1451 ft 173 kts 45°
2026-05-03 22:39 50.10363 19.78189 1498 ft 144 kts 49°
2026-05-03 22:39 50.11151 19.78875 1438 ft 127 kts
2026-05-03 22:40 50.11918 19.78266 1314 ft 140 kts 302°
2026-05-03 22:40 50.11755 19.76818 1460 ft 158 kts 224°
2026-05-03 22:40 50.10699 19.76458 1473 ft 163 kts 184°
2026-05-03 22:40 50.09732 19.76404 1262 ft 141 kts 173°
2026-05-03 22:41 50.08809 19.76695 1107 ft 113 kts 170°
2026-05-03 22:41 50.08092 19.76987 918 ft 104 kts 154°
2026-05-03 22:41 50.07833 19.77965 855 ft 127 kts 74°
2026-05-03 22:41 50.08072 19.79478 991 ft 156 kts 79°
2026-05-03 22:42 50.08494 19.80915 1302 ft 144 kts
2026-05-03 22:42 50.08991 19.79735 1396 ft 159 kts 262°
2026-05-03 22:42 50.09080 19.78034 1434 ft 167 kts 308°
2026-05-03 22:42 50.10135 19.77835 1666 ft 167 kts 27°
2026-05-03 22:43 50.11276 19.78460 1435 ft 183 kts 355°
2026-05-03 22:43 50.11825 19.76994 1243 ft 193 kts 245°
2026-05-03 22:43 50.10699 19.76424 1489 ft 171 kts 178°
2026-05-03 22:43 50.09641 19.76476 1323 ft 131 kts 177°
2026-05-03 22:44 50.08782 19.76584 1038 ft 120 kts 170°
2026-05-03 22:44 50.08029 19.76997 919 ft 109 kts 152°
2026-05-03 22:44 50.07847 19.77965 834 ft 117 kts 81°
2026-05-03 22:44 50.08060 19.79428 955 ft 151 kts 77°
2026-05-03 22:45 50.08361 19.80996 1358 ft 134 kts 37°
2026-05-03 22:45 50.09032 19.80295 1308 ft 154 kts 277°
2026-05-03 22:45 50.09030 19.78684 1568 ft 150 kts 291°
2026-05-03 22:45 50.09232 19.77234 1723 ft 147 kts 194°
2026-05-03 22:46 50.08593 19.78191 1711 ft 157 kts 95°
2026-05-03 22:46 50.09016 19.79962 1320 ft 189 kts 65°
2026-05-03 22:46 50.09358 19.81903 1347 ft 185 kts 83°
2026-05-03 22:46 50.09484 19.83871 1352 ft 179 kts 96°
2026-05-03 22:47 50.09034 19.84892 1410 ft 177 kts 156°
2026-05-03 22:47 50.08340 19.83787 1288 ft 181 kts 267°
2026-05-03 22:47 50.08201 19.81489 966 ft 138 kts 259°
2026-05-03 22:47 50.08006 19.80205 787 ft 112 kts 257°
2026-05-03 22:48 50.07922 19.79574 788 ft 26 kts 257°
2026-05-03 22:48 50.07890 19.79378 787 ft 27 kts 255°
2026-05-03 22:48 50.07843 19.79119 788 ft 23 kts 234°
2026-05-03 22:48 50.07713 19.79100 788 ft 19 kts 166°
2026-05-03 22:49 50.07588 19.79149 788 ft 17 kts 174°
2026-05-03 22:49 50.07528 19.79166 788 ft 0 kts 169°
2026-05-03 22:51 50.07508 19.79165 788 ft 6 kts 189°
2026-05-03 22:51 50.07464 19.79171 788 ft 5 kts 108°
2026-05-03 22:51 50.07466 19.79187 788 ft 0 kts 76°